Temp
12 12 13 12 11 11 10 9 10 11 13 12 12 12 13 13 14 13 13 13 13 13 13 13 13 12 12 12 12 12 12 12 12 12 12 12 12 12 12 13 13 14 13 14
12 14 13 11 12 12 11 12 12 12 12 13 12 13 13 13 13 13 12 13 13 13 13 13 12 12 12 12 13 11 12 12 12 12 12 12 12 13 14 14 14 14 13 13
14 15 12 13 12 11 12 12 11 11 11 12 11 16 14 13 13 14 13 12 13 13 13 12 11 10 10 10 10 11 12 13 12 12 12 12 12 13 13 13 13 14 14 14
13 13 13 12 13 11 12 12 11 11 13 13 11 14 14 12 14 14 12 11 11 13 13 12 11 11 11 11 10 11 12 12 13 12 12 13 13 13 14 14 14 14 14 14
16 13 12 13 14 12 13 11 11 12 12 13 12 13 14 12 13 13 12 12 12 13 13 12 12 12 12 11 11 11 12 11 11 13 12 13 13 14 14 14 14 14 14 13
13 12 12 14 12 12 12 12 11 10 11 12 11 11 13 12 11 12 12 12 11 12 13 13 12 12 12 11 11 12 12 11 11 12 12 12 12 13 13 13 14 14 14 13
13 14 12 11 13 12 10 10 11 12 11 13 10 12 13 11 10 10 10 11 10 10 10 12 13 12 12 12 12 12 11 12 11 11 12 12 12 12 12 13 14 14 14 13
12 13 12 12 12 12 11 10 10 12 11 11 10 12 11 10 10 9 10 9 9 9 9 10 9 10 11 12 12 12 12 12 12 12 11 12 11 12 12 12 13 13 13 14
11 13 13 12 12 12 12 11 11 9 9 10 10 11 11 10 9 8 8 8 8 8 8 8 8 8 9 10 10 11 11 12 12 12 12 12 12 11 12 11 11 12 12 13
13 11 12 12 12 12 12 11 11 9 11 11 10 10 9 8 7 7 7 7 7 7 7 7 7 7 7 7 9 10 10 10 11 11 11 11 11 11 11 10 11 11 12 11
12 11 12 12 12 12 12 12 9 9 9 10 10 10 9 7 6 6 6 6 6 6 6 6 6 6 6 6 7 7 8 9 10 10 10 10 10 10 10 10 10 9 10 10
11 9 10 12 11 10 11 11 10 10 10 8 8 9 7 6 6 5 5 5 5 5 5 5 5 5 5 5 5 5 6 6 7 8 9 10 10 10 10 10 10 10 10 10
12 10 9 11 12 11 12 11 9 8 8 8 9 10 6 5 5 5 4 4 4 4 4 4 4 4 4 4 4 4 4 5 5 7 8 9 10 9 9 9 9 9 10 10
11 9 10 10 12 11 11 10 10 10 8 9 8 8 5 4 4 4 3 3 3 2 3 3 2 2 2 2 2 3 3 4 4 4 5 7 8 9 9 9 9 9 9 9
9 9 7 8 8 9 9 10 9 7 8 9 9 6 4 3 2 3 2 2 1 1 1 1 1 1 0 0 0 1 1 2 3 3 4 4 6 8 9 9 9 9 8 9
7 9 8 6 8 8 8 8 7 7 8 7 7 4 2 2 2 2 0 -0 -0 -0 -0 -0 -1 -1 -1 -1 -1 -1 0 0 1 2 2 3 4 5 7 8 8 8 8 8
8 8 8 8 7 8 9 6 7 5 4 5 6 2 2 1 1 0 -1 -1 -2 -2 -2 -2 -2 -2 -2 -2 -2 -1 -1 -1 -0 0 1 2 3 3 4 5 7 8 8 7
6 7 9 7 7 8 5 4 4 4 3 3 3 1 0 -0 -0 -0 -2 -2 -3 -3 -3 -3 -3 -3 -3 -3 -3 -3 -2 -2 -1 -1 -0 0 1 2 2 3 3 5 6 6
5 7 7 8 7 8 4 3 4 4 2 1 1 -0 -1 -1 -1 -1 -2 -2 -3 -3 -3 -3 -4 -4 -4 -3 -4 -4 -4 -3 -3 -2 -2 -1 -1 -0 0 2 2 3 3 4
5 5 6 6 7 8 4 2 1 1 4 -1 -2 -2 -2 -2 0 1 -3 -3 -3 -4 -4 -4 -4 -4 -4 -4 -5 -5 -4 -4 -4 -3 -3 -3 -2 -2 -1 0 1 2 2 3
5 5 6 6 6 6 0 -1 -0 5 2 -2 -2 -3 -3 -3 -3 -3 -3 -3 -4 -5 -5 -5 -5 -5 -5 -5 -5 -5 -5 -4 -4 -4 -4 -4 -3 -2 -1 -0 1 1 1 3
7 6 5 5 6 6 -2 -1 3 -2 -2 -3 -4 -4 -4 -4 -4 -4 -4 -5 -5 -5 -5 -6 -6 -6 -6 -6 -6 -6 -5 -5 -5 -5 -4 -4 -4 -3 -3 -2 -1 0 1 1
6 4 5 4 3 -2 -3 -3 -4 -4 -4 -5 -5 -5 -5 -5 -5 -5 -5 -6 -6 -6 -6 -6 -6 -6 -6 -6 -7 -6 -6 -5 -5 -5 -5 -4 -4 -3 -3 -2 -0 0 0 1
-0 -1 2 2 -2 -3 -4 -5 -5 -5 -5 -5 -6 -6 -6 -6 -6 -6 -7 -7 -7 -7 -7 -7 -7 -7 -7 -7 -7 -7 -7 -6 -6 -5 -5 -4 -4 -3 -2 -2 -1 -0 0 1
-3 -2 -1 -2 -3 -4 -5 -5 -6 -6 -6 -6 -7 -7 -7 -7 -7 -7 -8 -8 -8 -8 -7 -8 -8 -8 -8 -8 -8 -8 -7 -7 -6 -6 -5 -5 -4 -3 -2 -2 -1 -0 -0 0
-4 -4 -2 -2 -4 -5 -5 -6 -6 -6 -7 -7 -7 -7 -7 -8 -8 -8 -9 -9 -9 -8 -9 -9 -9 -9 -9 -9 -9 -8 -8 -8 -7 -6 -5 -5 -4 -3 -2 -2 -1 -0 -0 -0
Height
819 824 825 823 825 825 827 829 823 808 796 796 793 790 784 777 774 775 775 772 774 778 778 775 774 782 786 782 792 794 799 804 809 812 814 818 820 825 828 831 834 836 839 841
823 820 819 821 819 818 821 816 811 803 798 795 796 792 788 786 785 781 778 778 775 777 777 778 782 781 782 788 784 797 797 802 806 811 813 816 820 824 827 829 831 833 836 839
824 818 819 816 817 820 816 813 818 818 804 799 804 786 793 793 789 782 784 781 780 779 778 781 781 780 782 788 792 789 794 798 805 809 813 816 819 821 823 825 828 832 834 837
824 820 820 818 816 820 816 813 815 811 802 807 808 806 802 801 791 792 791 788 785 781 782 785 786 786 791 796 796 790 784 795 804 808 810 813 815 817 819 822 826 829 832 834
820 823 823 819 815 818 814 814 811 811 808 809 810 811 813 809 801 800 797 796 790 785 787 788 789 793 797 799 795 791 791 796 802 805 807 811 813 814 817 820 823 826 829 831
824 825 824 819 818 815 812 812 813 820 814 821 829 827 822 824 823 810 801 800 799 795 793 793 795 797 796 795 792 792 798 798 800 803 806 808 810 813 815 817 819 821 824 827
826 820 823 823 818 815 821 821 829 826 830 824 832 824 829 832 829 824 818 812 809 804 801 799 796 795 795 795 795 796 798 796 798 801 803 805 807 810 812 814 815 817 819 821
842 836 828 827 827 828 830 831 842 829 840 839 835 827 836 836 831 828 824 821 814 810 808 806 803 799 799 796 794 794 795 796 799 802 801 800 804 806 806 809 810 811 813 815
844 834 827 826 826 829 826 837 836 848 853 847 845 836 833 833 829 829 827 823 823 820 816 812 809 806 802 799 797 796 794 795 795 796 798 798 796 800 800 802 805 806 808 808
838 845 829 829 826 827 827 832 836 849 841 837 842 844 847 847 848 843 838 835 832 829 822 819 816 814 811 806 801 798 798 797 796 795 793 794 794 794 794 797 797 798 800 802
840 847 835 828 831 831 831 833 846 854 857 848 853 844 854 858 858 853 848 845 841 835 834 831 824 819 816 812 808 805 803 801 800 799 797 794 793 792 791 790 791 792 793 794
840 854 850 833 836 835 831 832 839 844 846 863 858 850 856 859 859 857 854 851 847 844 838 832 830 827 822 818 813 811 809 806 803 802 796 794 793 791 789 790 789 788 788 789
837 848 856 839 836 834 832 833 843 852 855 854 852 840 865 866 863 860 857 854 852 848 844 840 833 828 827 824 822 818 812 807 804 802 799 796 793 792 790 789 787 785 785 784
836 850 846 851 834 836 837 835 839 839 857 847 845 846 860 865 864 861 861 860 856 853 848 844 839 836 833 828 822 817 814 812 807 801 797 794 790 788 785 783 782 780 779 778
843 846 856 846 843 843 838 835 842 851 843 841 839 852 868 869 869 867 866 863 859 855 850 847 843 838 834 828 823 818 814 810 807 803 798 794 789 786 783 780 777 775 774 774
849 844 846 853 839 839 839 836 841 844 843 847 848 866 875 872 871 868 870 869 864 862 858 854 849 843 837 832 826 820 813 806 802 797 794 792 787 784 779 775 773 772 770 769
848 850 849 844 843 841 833 846 841 851 857 855 850 875 876 874 871 873 875 873 870 866 862 858 852 847 842 836 830 823 817 812 805 799 792 788 784 780 775 772 769 766 764 763
850 853 846 849 846 840 849 852 849 854 862 866 867 875 878 878 874 875 877 875 871 868 864 860 855 850 846 840 834 827 819 812 806 800 794 788 782 776 771 767 763 760 757 755
845 848 848 847 852 836 852 857 854 854 871 875 875 876 878 876 871 873 873 874 874 870 866 862 860 854 846 840 834 829 821 814 807 801 795 789 784 777 770 764 759 755 752 749
847 850 851 858 848 832 855 862 864 865 852 878 881 880 880 876 866 866 875 875 873 871 867 863 856 851 847 840 834 828 821 814 807 800 793 786 780 774 767 761 754 748 745 741
853 854 850 850 848 841 866 869 867 849 867 880 881 882 882 882 882 879 874 869 869 866 863 859 855 849 844 838 832 824 816 809 803 796 789 783 776 768 761 753 748 742 738 734
837 844 850 852 849 844 873 869 858 880 879 882 884 884 882 881 879 877 875 872 868 862 854 853 850 845 840 836 831 825 817 810 802 794 784 775 766 761 754 747 740 735 732 727
840 846 842 849 853 876 879 879 881 881 882 884 884 884 883 881 879 876 873 869 866 863 859 853 846 838 834 831 827 820 813 806 796 787 779 770 760 750 743 736 730 725 722 718
861 864 854 856 876 879 881 884 883 883 883 884 884 883 882 881 878 874 871 868 864 860 856 852 846 840 832 826 820 815 807 800 792 783 773 762 752 742 735 727 720 715 712 708
872 867 866 869 875 880 883 884 885 885 885 883 882 881 880 878 875 872 869 865 862 858 853 848 842 837 831 825 818 811 803 793 784 774 765 756 747 736 726 717 711 707 702 701
878 878 870 869 880 883 883 886 886 885 885 884 882 879 878 876 873 871 867 864 859 854 850 844 839 833 827 821 815 808 802 794 784 771 760 751 741 730 721 712 703 698 695 693
Wind_Speed
4 5 3 6 3 6 5 3 6 5 3 5 6 5 8 9 9 9 3 7 6 4 6 6 8 15 13 9 11 16 20 21 23 23 23 21 21 20 20 19 18 18 19 20
5 2 4 6 3 5 3 4 5 8 3 4 6 12 7 13 9 8 12 7 2 2 5 6 8 10 13 14 11 21 21 20 22 23 23 20 21 20 20 19 20 22 21 22
1 3 6 3 4 7 2 3 5 5 7 1 4 17 12 5 6 14 11 9 2 4 5 6 7 6 6 10 23 27 20 19 20 20 20 16 18 18 22 23 23 22 21 23
3 4 6 5 2 1 5 1 3 5 3 3 7 6 10 11 16 17 17 14 10 4 5 5 4 6 6 11 16 14 13 13 17 19 22 22 21 21 23 24 23 22 21 23
3 6 6 5 5 0 7 4 2 3 3 3 12 6 10 8 16 19 17 17 12 4 5 4 7 8 9 10 5 10 11 14 14 18 21 23 24 22 20 21 21 23 23 23
4 3 0 3 5 2 8 2 4 3 2 5 4 2 10 7 8 15 20 16 14 12 6 1 4 7 8 5 8 4 5 8 15 13 18 21 23 24 21 20 18 22 23 24
6 2 4 2 6 5 9 6 3 5 5 1 5 6 3 6 7 7 11 16 16 14 12 11 6 6 9 10 9 9 9 7 9 17 17 20 24 24 24 23 22 21 23 26
3 7 6 7 3 3 5 4 3 2 1 3 5 3 3 4 6 10 10 12 16 17 13 13 16 16 15 12 10 13 15 16 16 15 17 20 23 23 25 27 26 25 27 28
4 4 2 2 1 1 4 5 1 4 1 1 3 2 3 15 19 20 19 19 19 18 16 16 22 21 21 21 15 11 11 14 17 21 19 19 22 26 26 29 28 27 28 29
1 4 1 4 1 3 5 1 3 3 2 2 3 0 2 11 15 15 17 17 16 16 19 18 25 27 28 27 28 23 17 14 13 14 16 19 21 23 26 29 31 31 30 30
2 2 6 1 3 2 3 3 5 4 2 1 2 2 3 4 7 9 12 13 14 16 15 15 23 28 28 30 31 31 31 25 20 13 11 13 16 20 23 25 28 29 28 30
1 3 3 3 4 3 2 4 4 3 3 2 2 3 1 1 4 8 11 13 13 13 15 18 23 25 28 30 31 30 30 31 29 24 20 16 12 11 16 21 25 26 28 30
2 1 4 6 3 2 3 1 4 5 3 5 4 1 1 5 7 8 10 11 11 13 16 16 24 26 27 28 28 28 29 30 32 33 29 23 19 17 13 14 16 19 23 26
2 2 6 6 6 2 5 4 4 4 3 3 5 5 2 6 9 12 10 12 13 13 15 15 18 24 26 28 30 31 30 28 30 33 32 31 29 25 22 19 17 17 20 23
3 4 4 6 8 4 7 9 5 7 5 5 2 4 5 8 9 9 7 12 15 17 18 18 18 25 28 31 34 34 32 32 32 31 30 29 33 30 26 23 20 19 19 21
2 3 1 4 6 3 5 7 6 5 2 5 4 4 4 4 7 12 11 14 15 17 17 17 22 26 28 31 33 34 35 38 38 35 32 30 29 33 31 26 24 22 20 19
1 2 2 5 4 6 5 2 2 4 5 2 1 4 9 7 12 10 9 12 14 16 17 17 22 26 27 30 31 32 35 35 35 35 37 34 32 31 30 30 29 26 23 21
5 4 2 4 5 2 2 4 5 11 8 7 6 6 4 8 12 1 9 12 14 16 16 21 24 27 29 29 29 32 33 32 31 32 33 34 33 32 34 31 30 31 27 24
5 4 3 2 2 4 2 3 2 1 3 6 3 6 7 11 8 7 13 15 11 14 18 18 23 26 28 28 30 29 30 30 31 30 31 32 34 35 36 36 32 29 25 22
5 3 2 1 2 5 3 1 3 2 4 4 4 5 9 10 5 1 14 17 16 17 15 19 22 21 21 25 26 26 26 28 29 33 36 36 34 34 34 35 36 33 29 27
3 1 5 3 4 3 1 6 3 3 2 2 3 4 5 3 3 11 18 18 19 18 20 20 19 19 23 25 28 29 31 29 34 35 36 36 35 35 35 35 35 32 30 28
5 5 4 2 3 7 4 1 1 2 3 3 3 3 5 7 8 9 11 14 19 23 27 24 21 22 23 23 24 26 27 31 33 36 36 38 38 34 32 34 34 31 29 28
3 1 2 1 1 4 6 6 4 2 2 2 2 3 5 7 8 10 11 14 17 19 20 21 24 28 28 26 25 26 30 32 33 35 34 35 37 37 35 33 31 27 26 25
1 3 1 2 4 5 5 4 3 4 2 2 3 5 5 6 8 9 10 14 16 18 19 21 20 21 27 31 32 31 33 34 33 34 34 36 35 35 34 31 28 24 25 22
1 4 2 3 4 6 4 3 2 2 3 4 6 4 6 7 9 9 13 15 18 19 21 22 22 23 25 28 30 32 33 37 36 36 35 33 33 34 34 32 25 26 29 27
3 2 1 0 2 1 1 2 3 3 4 6 6 9 8 9 11 14 14 16 18 20 23 23 24 25 28 28 29 30 31 32 35 37 35 34 35 35 30 29 26 26 27 28
Wind_Direction
351 59 338 294 233 233 273 244 269 270 309 351 335 332 1 349 20 39 22 151 169 168 169 139 115 133 137 150 175 184 197 198 196 191 189 197 204 209 208 212 222 223 214 207
17 34 306 272 253 272 271 294 329 297 326 27 347 28 18 20 7 12 22 332 194 188 133 111 168 164 162 171 180 205 197 203 204 206 202 203 206 208 215 223 225 218 217 215
144 301 320 346 330 356 322 22 317 264 319 73 336 42 33 355 21 34 12 10 87 175 113 104 94 108 150 191 187 189 187 197 210 212 205 201 201 213 220 226 224 222 225 224
248 322 350 323 359 29 335 63 277 307 33 18 353 51 13 349 32 30 10 4 347 137 88 94 133 162 222 228 207 176 164 203 214 215 210 210 211 216 227 230 228 227 229 229
306 344 354 335 329 320 259 346 3 334 75 41 360 68 348 6 17 7 9 21 21 35 97 135 169 180 201 236 170 148 169 211 212 218 220 224 227 232 235 237 236 234 234 233
260 286 212 271 318 274 291 47 42 46 53 42 324 64 18 10 344 354 7 13 18 17 12 304 215 229 251 225 207 169 210 204 216 234 227 235 239 241 237 235 234 234 236 238
326 346 328 356 351 358 14 37 3 20 18 239 328 68 61 346 336 340 345 357 4 9 15 10 348 256 247 241 230 232 233 219 234 235 239 238 244 248 253 249 244 242 240 240
33 336 19 335 62 305 350 50 105 124 1 295 325 57 355 318 322 353 17 11 11 11 9 13 5 358 348 322 261 245 239 250 240 251 248 247 251 253 255 258 255 253 255 255
10 289 327 56 344 75 332 35 232 99 44 79 335 20 248 359 3 10 11 12 12 8 11 13 18 15 14 13 8 339 271 260 254 266 265 262 264 259 259 262 262 261 262 259
290 305 316 293 143 52 102 173 31 11 36 12 329 100 333 352 349 359 23 19 13 19 19 17 19 18 20 19 23 26 16 355 335 306 289 279 276 273 268 265 267 267 267 268
114 113 288 12 33 258 1 39 65 117 77 100 319 243 10 326 352 19 24 21 13 10 19 16 14 14 16 20 22 23 24 20 10 6 343 318 304 293 286 280 275 271 276 269
220 155 283 270 302 273 238 152 128 122 234 144 171 244 169 238 5 26 23 16 12 14 8 8 12 13 16 13 11 11 10 13 14 3 358 351 333 309 292 283 282 282 273 271
191 311 335 358 354 339 292 56 91 90 80 215 162 225 90 0 3 12 26 16 14 10 8 7 8 7 5 4 2 1 0 358 357 360 0 353 353 345 326 304 296 283 277 275
107 175 189 204 227 184 282 195 192 145 164 205 227 141 2 18 9 1 6 5 7 7 5 1 3 360 357 355 354 352 351 352 349 348 346 349 351 340 335 327 310 296 286 274
109 235 181 260 267 232 253 268 220 198 201 194 288 126 8 354 349 354 2 5 5 2 1 360 354 351 350 350 348 346 345 345 343 339 338 336 336 339 331 324 321 310 291 283
10 271 316 261 278 274 260 267 243 230 223 257 150 117 357 325 341 3 19 7 1 355 355 352 348 348 347 345 342 339 339 338 338 334 329 328 329 328 327 327 317 308 298 285
260 183 19 275 347 311 294 317 83 108 66 352 178 56 7 342 345 356 24 8 355 351 349 345 343 342 339 338 336 334 332 330 330 327 324 325 325 321 321 320 315 307 298 290
163 156 202 274 345 264 93 0 101 105 75 56 82 30 359 314 300 342 42 9 357 350 343 340 337 333 333 332 335 333 331 329 326 322 320 321 321 319 316 314 310 308 301 284
177 151 227 236 242 294 191 41 76 29 90 36 9 342 335 330 306 174 20 10 345 334 328 326 326 324 323 329 331 331 329 328 327 324 321 319 315 311 309 304 301 300 292 277
90 87 155 153 217 260 100 155 24 215 217 38 13 347 343 342 9 327 345 337 334 333 328 327 324 320 323 325 327 325 324 324 321 321 318 314 311 305 299 295 294 294 289 272
108 135 223 234 256 274 332 304 298 171 141 32 14 357 346 346 285 304 321 329 334 333 329 332 330 327 327 331 334 330 328 325 323 317 314 311 305 302 298 293 289 284 288 273
177 168 206 156 221 262 340 302 253 52 63 36 24 0 322 323 314 318 322 324 328 328 332 335 334 330 330 335 336 329 323 320 319 318 314 313 309 302 296 290 283 276 280 267
224 223 171 197 336 93 33 85 66 56 117 23 331 342 322 310 319 324 323 323 325 323 322 327 329 328 330 333 334 324 323 325 323 321 315 313 309 304 300 292 283 276 273 252
93 19 148 151 122 127 105 76 50 48 62 356 338 322 327 314 313 313 317 320 319 320 320 327 325 326 325 330 329 325 325 328 325 325 319 317 313 309 305 297 278 269 267 246
337 333 21 95 93 114 108 82 25 22 31 1 339 320 319 322 318 320 318 320 321 321 326 328 325 323 322 324 323 324 327 329 328 327 323 319 317 310 307 298 275 272 263 246
4 41 243 258 86 154 85 104 43 21 350 338 327 330 327 327 315 318 310 314 316 324 326 326 324 323 323 323 322 323 329 330 331 327 327 324 323 317 315 310 294 287 269 259